Data supplied by UK-AIR on 17/3/2022
All Data GMT hour ending 
Status: R =Ratified P=Provisional,P*=As supplied
,,Cambridge Roadside,,,,,,,,,,,,,,,,,,,,,,,
Date,time,"Nitric oxide",status,unit,"Nitrogen dioxide",status,unit,"Nitrogen oxides as nitrogen dioxide",status,unit
 
01-01-2021,01:00,4.39399,R,ugm-3,30.57804,R,ugm-3,37.31539,R,ugm-3
01-01-2021,02:00,4.21823,R,ugm-3,26.81343,R,ugm-3,33.28129,R,ugm-3
01-01-2021,03:00,4.58073,R,ugm-3,25.24908,R,ugm-3,32.27277,R,ugm-3
01-01-2021,04:00,4.08641,R,ugm-3,23.53615,R,ugm-3,29.80188,R,ugm-3
01-01-2021,05:00,4.58073,R,ugm-3,25.14823,R,ugm-3,32.17191,R,ugm-3
01-01-2021,06:00,5.20687,R,ugm-3,25.24710,R,ugm-3,33.23087,R,ugm-3
01-01-2021,07:00,4.97619,R,ugm-3,25.49996,R,ugm-3,33.13001,R,ugm-3
01-01-2021,08:00,5.30574,R,ugm-3,26.60830,R,ugm-3,34.74365,R,ugm-3
01-01-2021,09:00,5.04210,R,ugm-3,25.90316,R,ugm-3,33.63428,R,ugm-3
01-01-2021,10:00,5.99779,R,ugm-3,22.62245,R,ugm-3,31.81893,R,ugm-3
01-01-2021,11:00,7.18417,R,ugm-3,21.30763,R,ugm-3,32.32319,R,ugm-3
01-01-2021,12:00,9.98533,R,ugm-3,22.20646,R,ugm-3,37.51709,R,ugm-3
01-01-2021,13:00,9.52397,R,ugm-3,20.14044,R,ugm-3,34.74365,R,ugm-3
01-01-2021,14:00,7.48076,R,ugm-3,22.36564,R,ugm-3,33.83598,R,ugm-3
01-01-2021,15:00,3.36140,R,ugm-3,18.74795,R,ugm-3,23.90202,R,ugm-3
01-01-2021,16:00,3.32844,R,ugm-3,20.26084,R,ugm-3,25.36438,R,ugm-3
01-01-2021,17:00,2.96594,R,ugm-3,21.67391,R,ugm-3,26.22162,R,ugm-3
01-01-2021,18:00,8.30463,R,ugm-3,19.23662,R,ugm-3,31.97021,R,ugm-3
01-01-2021,19:00,2.17502,R,ugm-3,13.10395,R,ugm-3,16.43894,R,ugm-3
01-01-2021,20:00,2.76821,R,ugm-3,12.79953,R,ugm-3,17.04406,R,ugm-3
01-01-2021,21:00,1.71365,R,ugm-3,11.49177,R,ugm-3,14.11934,R,ugm-3
01-01-2021,22:00,1.68070,R,ugm-3,10.83633,R,ugm-3,13.41337,R,ugm-3
01-01-2021,23:00,1.38411,R,ugm-3,9.72789,R,ugm-3,11.85016,R,ugm-3
01-01-2021,24:00,1.58184,R,ugm-3,8.31533,R,ugm-3,10.74078,R,ugm-3
02-01-2021,01:00,0.92303,R,ugm-3,7.73117,R,ugm-3,9.14646,R,ugm-3
02-01-2021,02:00,0.92303,R,ugm-3,7.52941,R,ugm-3,8.94470,R,ugm-3
02-01-2021,03:00,0.89007,R,ugm-3,7.41182,R,ugm-3,8.77657,R,ugm-3
02-01-2021,04:00,0.98896,R,ugm-3,6.80622,R,ugm-3,8.32261,R,ugm-3
02-01-2021,05:00,1.15379,R,ugm-3,7.51185,R,ugm-3,9.28097,R,ugm-3
02-01-2021,06:00,1.71420,R,ugm-3,7.81268,R,ugm-3,10.44109,R,ugm-3
02-01-2021,07:00,12.42796,R,ugm-3,20.38817,R,ugm-3,39.44411,R,ugm-3
02-01-2021,08:00,23.63621,R,ugm-3,34.32394,R,ugm-3,70.56562,R,ugm-3
02-01-2021,09:00,28.48212,R,ugm-3,40.56289,R,ugm-3,84.23487,R,ugm-3
02-01-2021,10:00,43.18470,R,ugm-3,41.62519,R,ugm-3,107.84081,R,ugm-3
02-01-2021,11:00,35.14114,R,ugm-3,41.09627,R,ugm-3,94.97860,R,ugm-3
02-01-2021,12:00,24.59220,R,ugm-3,31.69798,R,ugm-3,69.40550,R,ugm-3
02-01-2021,13:00,38.33878,R,ugm-3,36.49592,R,ugm-3,95.28124,R,ugm-3
02-01-2021,14:00,23.73510,R,ugm-3,26.60630,R,ugm-3,62.99961,R,ugm-3
02-01-2021,15:00,34.91038,R,ugm-3,33.48057,R,ugm-3,87.00907,R,ugm-3
02-01-2021,16:00,41.86608,R,ugm-3,45.16024,R,ugm-3,109.35401,R,ugm-3
02-01-2021,17:00,39.95409,R,ugm-3,47.43621,R,ugm-3,108.69829,R,ugm-3
02-01-2021,18:00,52.21722,R,ugm-3,48.20373,R,ugm-3,128.26902,R,ugm-3
02-01-2021,19:00,36.03120,R,ugm-3,44.01892,R,ugm-3,99.26600,R,ugm-3
02-01-2021,20:00,12.98838,R,ugm-3,28.65853,R,ugm-3,48.57376,R,ugm-3
02-01-2021,21:00,8.57101,R,ugm-3,21.96424,R,ugm-3,35.10627,R,ugm-3
02-01-2021,22:00,5.24150,R,ugm-3,19.20077,R,ugm-3,27.23762,R,ugm-3
02-01-2021,23:00,8.50508,R,ugm-3,22.26709,R,ugm-3,35.30803,R,ugm-3
02-01-2021,24:00,8.86770,R,ugm-3,21.35800,R,ugm-3,34.95495,R,ugm-3
03-01-2021,01:00,5.05631,R,ugm-3,19.49219,R,ugm-3,27.24510,R,ugm-3
03-01-2021,02:00,1.09920,R,ugm-3,12.23986,R,ugm-3,13.92527,R,ugm-3
03-01-2021,03:00,0.89035,R,ugm-3,10.39057,R,ugm-3,11.75576,R,ugm-3
03-01-2021,04:00,0.92333,R,ugm-3,10.64273,R,ugm-3,12.05848,R,ugm-3
03-01-2021,05:00,1.38499,R,ugm-3,11.44847,R,ugm-3,13.57210,R,ugm-3
03-01-2021,06:00,2.20939,R,ugm-3,11.19349,R,ugm-3,14.58117,R,ugm-3
03-01-2021,07:00,5.37508,R,ugm-3,16.68254,R,ugm-3,24.92422,R,ugm-3
03-01-2021,08:00,3.82521,R,ugm-3,15.98129,R,ugm-3,21.84653,R,ugm-3
03-01-2021,09:00,5.27615,R,ugm-3,16.12788,R,ugm-3,24.21786,R,ugm-3
03-01-2021,10:00,13.15740,R,ugm-3,22.81231,R,ugm-3,42.98671,R,ugm-3
03-01-2021,11:00,8.50779,R,ugm-3,14.20000,R,ugm-3,27.24510,R,ugm-3
03-01-2021,12:00,7.28768,R,ugm-3,13.74992,R,ugm-3,24.92422,R,ugm-3
03-01-2021,13:00,4.91342,R,ugm-3,11.58822,R,ugm-3,19.12202,R,ugm-3
03-01-2021,14:00,5.93567,R,ugm-3,14.71300,R,ugm-3,23.81423,R,ugm-3
03-01-2021,15:00,5.77079,R,ugm-3,14.15855,R,ugm-3,23.00697,R,ugm-3
03-01-2021,16:00,6.03460,R,ugm-3,13.80450,R,ugm-3,23.05742,R,ugm-3
03-01-2021,17:00,6.00162,R,ugm-3,15.87322,R,ugm-3,25.07558,R,ugm-3
03-01-2021,18:00,7.91423,R,ugm-3,23.48546,R,ugm-3,35.62044,R,ugm-3
03-01-2021,19:00,4.55068,R,ugm-3,16.43299,R,ugm-3,23.41060,R,ugm-3
03-01-2021,20:00,2.90188,R,ugm-3,13.00755,R,ugm-3,17.45704,R,ugm-3
03-01-2021,21:00,2.86891,R,ugm-3,12.45267,R,ugm-3,16.85160,R,ugm-3
03-01-2021,22:00,1.97856,R,ugm-3,9.57973,R,ugm-3,12.61347,R,ugm-3
03-01-2021,23:00,2.37427,R,ugm-3,9.72978,R,ugm-3,13.37028,R,ugm-3
03-01-2021,24:00,1.94558,R,ugm-3,14.12068,R,ugm-3,17.10387,R,ugm-3
04-01-2021,01:00,1.75928,R,ugm-3,8.60725,R,ugm-3,11.30477,R,ugm-3
04-01-2021,02:00,1.05557,R,ugm-3,6.72548,R,ugm-3,8.34400,R,ugm-3
04-01-2021,03:00,0.89064,R,ugm-3,8.12231,R,ugm-3,9.48793,R,ugm-3
04-01-2021,04:00,0.89064,R,ugm-3,4.28676,R,ugm-3,5.65238,R,ugm-3
04-01-2021,05:00,1.68231,R,ugm-3,5.74767,R,ugm-3,8.32717,R,ugm-3
04-01-2021,06:00,1.41842,R,ugm-3,5.84949,R,ugm-3,8.02437,R,ugm-3
04-01-2021,07:00,8.54350,R,ugm-3,14.20320,R,ugm-3,27.30304,R,ugm-3
04-01-2021,08:00,12.04006,R,ugm-3,25.49622,R,ugm-3,43.95739,R,ugm-3
04-01-2021,09:00,16.85609,R,ugm-3,29.26512,R,ugm-3,55.11075,R,ugm-3
04-01-2021,10:00,14.64599,R,ugm-3,23.41829,R,ugm-3,45.87516,R,ugm-3
04-01-2021,11:00,10.78658,R,ugm-3,16.21437,R,ugm-3,32.75355,R,ugm-3
04-01-2021,12:00,15.47066,R,ugm-3,18.92389,R,ugm-3,42.64523,R,ugm-3
04-01-2021,13:00,12.07305,R,ugm-3,15.95771,R,ugm-3,34.46946,R,ugm-3
04-01-2021,14:00,15.83351,R,ugm-3,19.27594,R,ugm-3,43.55365,R,ugm-3
04-01-2021,15:00,18.01061,R,ugm-3,20.12658,R,ugm-3,47.74247,R,ugm-3
04-01-2021,16:00,23.51935,R,ugm-3,26.36607,R,ugm-3,62.42858,R,ugm-3
04-01-2021,17:00,16.75713,R,ugm-3,22.70464,R,ugm-3,48.39855,R,ugm-3
04-01-2021,18:00,10.09386,R,ugm-3,20.75879,R,ugm-3,36.23583,R,ugm-3
04-01-2021,19:00,11.64422,R,ugm-3,25.59848,R,ugm-3,43.45271,R,ugm-3
04-01-2021,20:00,5.34381,R,ugm-3,17.84762,R,ugm-3,26.04135,R,ugm-3
04-01-2021,21:00,3.29865,R,ugm-3,10.99088,R,ugm-3,16.04874,R,ugm-3
04-01-2021,22:00,3.52955,R,ugm-3,11.64619,R,ugm-3,17.05809,R,ugm-3
04-01-2021,23:00,2.50697,R,ugm-3,9.32811,R,ugm-3,13.17208,R,ugm-3
04-01-2021,24:00,2.11113,R,ugm-3,8.11821,R,ugm-3,11.35524,R,ugm-3
05-01-2021,01:00,1.49586,R,ugm-3,7.46614,R,ugm-3,9.75977,R,ugm-3
05-01-2021,02:00,1.09990,R,ugm-3,7.93866,R,ugm-3,9.62515,R,ugm-3
05-01-2021,03:00,0.82493,R,ugm-3,5.49966,R,ugm-3,6.76453,R,ugm-3
05-01-2021,04:00,0.89092,R,ugm-3,4.23740,R,ugm-3,5.60345,R,ugm-3
05-01-2021,05:00,1.15490,R,ugm-3,5.19564,R,ugm-3,6.96646,R,ugm-3
05-01-2021,06:00,1.18789,R,ugm-3,5.39746,R,ugm-3,7.21886,R,ugm-3
05-01-2021,07:00,7.55631,R,ugm-3,13.95749,R,ugm-3,25.54367,R,ugm-3
05-01-2021,08:00,17.85138,R,ugm-3,27.55222,R,ugm-3,54.92394,R,ugm-3
05-01-2021,09:00,14.35369,R,ugm-3,25.84783,R,ugm-3,47.85652,R,ugm-3
05-01-2021,10:00,13.16580,R,ugm-3,21.51049,R,ugm-3,41.69777,R,ugm-3
05-01-2021,11:00,13.56177,R,ugm-3,21.81202,R,ugm-3,42.60644,R,ugm-3
05-01-2021,12:00,12.30788,R,ugm-3,20.20091,R,ugm-3,39.07273,R,ugm-3
05-01-2021,13:00,12.73684,R,ugm-3,17.62488,R,ugm-3,37.15443,R,ugm-3
05-01-2021,14:00,11.35097,R,ugm-3,19.39649,R,ugm-3,36.80106,R,ugm-3
05-01-2021,15:00,12.14290,R,ugm-3,18.88896,R,ugm-3,37.50780,R,ugm-3
05-01-2021,16:00,15.90455,R,ugm-3,20.74388,R,ugm-3,45.13052,R,ugm-3
05-01-2021,17:00,14.38669,R,ugm-3,20.54716,R,ugm-3,42.60644,R,ugm-3
05-01-2021,18:00,12.10990,R,ugm-3,21.81700,R,ugm-3,40.38525,R,ugm-3
05-01-2021,19:00,13.19880,R,ugm-3,19.28919,R,ugm-3,39.52707,R,ugm-3
05-01-2021,20:00,8.24925,R,ugm-3,17.28690,R,ugm-3,29.93557,R,ugm-3
05-01-2021,21:00,7.09435,R,ugm-3,15.01919,R,ugm-3,25.89704,R,ugm-3
05-01-2021,22:00,5.37851,R,ugm-3,12.34954,R,ugm-3,20.59648,R,ugm-3
05-01-2021,23:00,3.99264,R,ugm-3,9.42636,R,ugm-3,15.54832,R,ugm-3
05-01-2021,24:00,4.88356,R,ugm-3,7.65646,R,ugm-3,15.14447,R,ugm-3
06-01-2021,01:00,4.66506,R,ugm-3,7.52434,R,ugm-3,14.67733,R,ugm-3
06-01-2021,02:00,1.01223,R,ugm-3,5.24798,R,ugm-3,6.80005,R,ugm-3
06-01-2021,03:00,0.95722,R,ugm-3,4.54124,R,ugm-3,6.00895,R,ugm-3
06-01-2021,04:00,1.05624,R,ugm-3,3.68247,R,ugm-3,5.30202,R,ugm-3
06-01-2021,05:00,1.28729,R,ugm-3,5.75198,R,ugm-3,7.72580,R,ugm-3
06-01-2021,06:00,1.55135,R,ugm-3,8.52830,R,ugm-3,10.90701,R,ugm-3
06-01-2021,07:00,7.92181,R,ugm-3,16.78727,R,ugm-3,28.93387,R,ugm-3
06-01-2021,08:00,20.95978,R,ugm-3,24.66946,R,ugm-3,56.80733,R,ugm-3
06-01-2021,09:00,20.62970,R,ugm-3,26.08448,R,ugm-3,57.71625,R,ugm-3
06-01-2021,10:00,21.35587,R,ugm-3,26.18293,R,ugm-3,58.92814,R,ugm-3
06-01-2021,11:00,16.70181,R,ugm-3,27.51209,R,ugm-3,53.12117,R,ugm-3
06-01-2021,12:00,18.71527,R,ugm-3,24.77830,R,ugm-3,53.47464,R,ugm-3
06-01-2021,13:00,18.28617,R,ugm-3,22.00255,R,ugm-3,50.04095,R,ugm-3
06-01-2021,14:00,13.50008,R,ugm-3,17.62619,R,ugm-3,38.32601,R,ugm-3
06-01-2021,15:00,18.22015,R,ugm-3,25.08300,R,ugm-3,53.02018,R,ugm-3
06-01-2021,16:00,31.12609,R,ugm-3,34.98547,R,ugm-3,82.71148,R,ugm-3
06-01-2021,17:00,37.66158,R,ugm-3,40.26463,R,ugm-3,98.01158,R,ugm-3
06-01-2021,18:00,33.73369,R,ugm-3,38.00607,R,ugm-3,89.73034,R,ugm-3
06-01-2021,19:00,31.62121,R,ugm-3,35.23621,R,ugm-3,83.72138,R,ugm-3
06-01-2021,20:00,22.90722,R,ugm-3,29.96467,R,ugm-3,65.08858,R,ugm-3
06-01-2021,21:00,14.98542,R,ugm-3,25.29629,R,ugm-3,48.27361,R,ugm-3
06-01-2021,22:00,14.52331,R,ugm-3,22.67215,R,ugm-3,44.94091,R,ugm-3
06-01-2021,23:00,13.17000,R,ugm-3,24.04026,R,ugm-3,44.23398,R,ugm-3
06-01-2021,24:00,9.53917,R,ugm-3,24.25493,R,ugm-3,38.88146,R,ugm-3
07-01-2021,01:00,7.61616,R,ugm-3,19.63778,R,ugm-3,31.31573,R,ugm-3
07-01-2021,02:00,2.20120,R,ugm-3,15.54900,R,ugm-3,18.92413,R,ugm-3
07-01-2021,03:00,2.04712,R,ugm-3,15.85261,R,ugm-3,18.99148,R,ugm-3
07-01-2021,04:00,2.04712,R,ugm-3,17.77196,R,ugm-3,20.91083,R,ugm-3
07-01-2021,05:00,1.88203,R,ugm-3,17.77255,R,ugm-3,20.65828,R,ugm-3
07-01-2021,06:00,8.71677,R,ugm-3,23.80929,R,ugm-3,37.17481,R,ugm-3
07-01-2021,07:00,22.18813,R,ugm-3,32.49936,R,ugm-3,66.52068,R,ugm-3
07-01-2021,08:00,62.70127,R,ugm-3,46.14394,R,ugm-3,142.28455,R,ugm-3
07-01-2021,09:00,81.22440,R,ugm-3,46.38096,R,ugm-3,170.92329,R,ugm-3
07-01-2021,10:00,74.25759,R,ugm-3,53.07302,R,ugm-3,166.93306,R,ugm-3
07-01-2021,11:00,56.79104,R,ugm-3,38.74016,R,ugm-3,125.81854,R,ugm-3
07-01-2021,12:00,65.21064,R,ugm-3,42.39731,R,ugm-3,142.38557,R,ugm-3
07-01-2021,13:00,37.57454,R,ugm-3,34.71742,R,ugm-3,92.33090,R,ugm-3
07-01-2021,14:00,49.29594,R,ugm-3,44.67646,R,ugm-3,120.26252,R,ugm-3
07-01-2021,15:00,48.20635,R,ugm-3,43.77118,R,ugm-3,117.68655,R,ugm-3
07-01-2021,16:00,51.64023,R,ugm-3,48.10273,R,ugm-3,127.28331,R,ugm-3
07-01-2021,17:00,65.44177,R,ugm-3,49.87186,R,ugm-3,150.21450,R,ugm-3
07-01-2021,18:00,55.53636,R,ugm-3,53.49333,R,ugm-3,138.64789,R,ugm-3
07-01-2021,19:00,43.51779,R,ugm-3,51.41479,R,ugm-3,118.14113,R,ugm-3
07-01-2021,20:00,27.70214,R,ugm-3,45.81414,R,ugm-3,88.29017,R,ugm-3
07-01-2021,21:00,16.37695,R,ugm-3,32.46957,R,ugm-3,57.58054,R,ugm-3
07-01-2021,22:00,16.77317,R,ugm-3,36.50889,R,ugm-3,62.22739,R,ugm-3
07-01-2021,23:00,14.16474,R,ugm-3,34.80088,R,ugm-3,56.51985,R,ugm-3
07-01-2021,24:00,11.19312,R,ugm-3,27.58865,R,ugm-3,44.75119,R,ugm-3
08-01-2021,01:00,5.90111,R,ugm-3,23.15182,R,ugm-3,32.20005,R,ugm-3
08-01-2021,02:00,3.65516,R,ugm-3,21.20642,R,ugm-3,26.81092,R,ugm-3
08-01-2021,03:00,3.30286,R,ugm-3,21.40979,R,ugm-3,26.47410,R,ugm-3
08-01-2021,04:00,4.65703,R,ugm-3,24.18364,R,ugm-3,31.32432,R,ugm-3
08-01-2021,05:00,7.43143,R,ugm-3,23.01153,R,ugm-3,34.40622,R,ugm-3
08-01-2021,06:00,7.66263,R,ugm-3,23.71801,R,ugm-3,35.46721,R,ugm-3
08-01-2021,07:00,50.56674,R,ugm-3,34.92980,R,ugm-3,112.46440,R,ugm-3
08-01-2021,08:00,86.43578,R,ugm-3,48.44070,R,ugm-3,180.97371,R,ugm-3
08-01-2021,09:00,132.24640,R,ugm-3,49.18365,R,ugm-3,251.95865,R,ugm-3
08-01-2021,10:00,85.54400,R,ugm-3,40.76443,R,ugm-3,171.93007,R,ugm-3
08-01-2021,11:00,55.52103,R,ugm-3,37.99371,R,ugm-3,123.12477,R,ugm-3
08-01-2021,12:00,31.60834,R,ugm-3,34.74608,R,ugm-3,83.21153,R,ugm-3
08-01-2021,13:00,22.16217,R,ugm-3,31.19326,R,ugm-3,65.17479,R,ugm-3
08-01-2021,14:00,25.43200,R,ugm-3,36.89049,R,ugm-3,75.88568,R,ugm-3
08-01-2021,15:00,23.35120,R,ugm-3,33.81614,R,ugm-3,69.62082,R,ugm-3
08-01-2021,16:00,24.96960,R,ugm-3,38.71100,R,ugm-3,76.99719,R,ugm-3
08-01-2021,17:00,26.85223,R,ugm-3,38.60311,R,ugm-3,79.77596,R,ugm-3
08-01-2021,18:00,20.74194,R,ugm-3,32.71412,R,ugm-3,64.51799,R,ugm-3
08-01-2021,19:00,16.44823,R,ugm-3,32.52762,R,ugm-3,57.74789,R,ugm-3
08-01-2021,20:00,12.38572,R,ugm-3,29.96571,R,ugm-3,48.95687,R,ugm-3
08-01-2021,21:00,8.71954,R,ugm-3,24.21940,R,ugm-3,37.58918,R,ugm-3
08-01-2021,22:00,6.20937,R,ugm-3,20.18667,R,ugm-3,29.70758,R,ugm-3
08-01-2021,23:00,6.77086,R,ugm-3,20.23516,R,ugm-3,30.61699,R,ugm-3
08-01-2021,24:00,5.08640,R,ugm-3,17.96774,R,ugm-3,25.76678,R,ugm-3
09-01-2021,01:00,3.83254,R,ugm-3,18.24649,R,ugm-3,24.12296,R,ugm-3
09-01-2021,02:00,1.40967,R,ugm-3,17.37949,R,ugm-3,19.54095,R,ugm-3
09-01-2021,03:00,1.45372,R,ugm-3,15.81268,R,ugm-3,18.04168,R,ugm-3
09-01-2021,04:00,1.51980,R,ugm-3,12.83075,R,ugm-3,15.16108,R,ugm-3
09-01-2021,05:00,1.71803,R,ugm-3,12.88056,R,ugm-3,15.51484,R,ugm-3
09-01-2021,06:00,2.44489,R,ugm-3,15.96062,R,ugm-3,19.70940,R,ugm-3
09-01-2021,07:00,17.60984,R,ugm-3,30.05482,R,ugm-3,57.05619,R,ugm-3
09-01-2021,08:00,38.72182,R,ugm-3,33.21102,R,ugm-3,92.58366,R,ugm-3
09-01-2021,09:00,27.38941,R,ugm-3,33.05083,R,ugm-3,75.04734,R,ugm-3
09-01-2021,10:00,51.54099,R,ugm-3,35.89256,R,ugm-3,114.92098,R,ugm-3
09-01-2021,11:00,54.67971,R,ugm-3,39.26692,R,ugm-3,123.10796,R,ugm-3
09-01-2021,12:00,48.66659,R,ugm-3,39.89562,R,ugm-3,114.51669,R,ugm-3
09-01-2021,13:00,54.97706,R,ugm-3,39.87226,R,ugm-3,124.16924,R,ugm-3
09-01-2021,14:00,36.67340,R,ugm-3,33.87559,R,ugm-3,90.10735,R,ugm-3
09-01-2021,15:00,41.53015,R,ugm-3,40.68009,R,ugm-3,104.35876,R,ugm-3
09-01-2021,16:00,39.94427,R,ugm-3,39.01824,R,ugm-3,100.26527,R,ugm-3
09-01-2021,17:00,39.44868,R,ugm-3,35.33088,R,ugm-3,95.81802,R,ugm-3
09-01-2021,18:00,40.07643,R,ugm-3,40.83709,R,ugm-3,102.28675,R,ugm-3
09-01-2021,19:00,36.57428,R,ugm-3,40.69844,R,ugm-3,96.77822,R,ugm-3
09-01-2021,20:00,30.26381,R,ugm-3,39.05408,R,ugm-3,85.45795,R,ugm-3
09-01-2021,21:00,9.77957,R,ugm-3,24.87850,R,ugm-3,39.87364,R,ugm-3
09-01-2021,22:00,10.73771,R,ugm-3,24.21797,R,ugm-3,40.68223,R,ugm-3
09-01-2021,23:00,11.16722,R,ugm-3,22.90243,R,ugm-3,40.02525,R,ugm-3
09-01-2021,24:00,8.35889,R,ugm-3,18.92041,R,ugm-3,31.73719,R,ugm-3
10-01-2021,01:00,5.37607,R,ugm-3,15.27976,R,ugm-3,23.52296,R,ugm-3
10-01-2021,02:00,1.76265,R,ugm-3,8.21628,R,ugm-3,10.91897,R,ugm-3
10-01-2021,03:00,1.68553,R,ugm-3,7.62681,R,ugm-3,10.21126,R,ugm-3
10-01-2021,04:00,1.75163,R,ugm-3,8.28372,R,ugm-3,10.96952,R,ugm-3
10-01-2021,05:00,2.18128,R,ugm-3,9.24257,R,ugm-3,12.58714,R,ugm-3
10-01-2021,06:00,1.98298,R,ugm-3,8.78836,R,ugm-3,11.82888,R,ugm-3
10-01-2021,07:00,3.83376,R,ugm-3,12.16828,R,ugm-3,18.04663,R,ugm-3
10-01-2021,08:00,7.43617,R,ugm-3,15.38995,R,ugm-3,26.79191,R,ugm-3
10-01-2021,09:00,8.09716,R,ugm-3,16.60067,R,ugm-3,29.01614,R,ugm-3
10-01-2021,10:00,9.81574,R,ugm-3,17.04915,R,ugm-3,32.09974,R,ugm-3
10-01-2021,11:00,13.91389,R,ugm-3,17.89306,R,ugm-3,39.22740,R,ugm-3
10-01-2021,12:00,25.67956,R,ugm-3,24.42030,R,ugm-3,63.79508,R,ugm-3
10-01-2021,13:00,14.14524,R,ugm-3,23.65498,R,ugm-3,45.34404,R,ugm-3
10-01-2021,14:00,20.39162,R,ugm-3,27.37218,R,ugm-3,58.63890,R,ugm-3
10-01-2021,15:00,14.17829,R,ugm-3,25.92964,R,ugm-3,47.66938,R,ugm-3
10-01-2021,16:00,16.26042,R,ugm-3,27.03391,R,ugm-3,51.96619,R,ugm-3
10-01-2021,17:00,15.73162,R,ugm-3,32.69759,R,ugm-3,56.81907,R,ugm-3
10-01-2021,18:00,13.88084,R,ugm-3,29.77262,R,ugm-3,51.05628,R,ugm-3
10-01-2021,19:00,9.48524,R,ugm-3,25.49238,R,ugm-3,40.03621,R,ugm-3
10-01-2021,20:00,6.08113,R,ugm-3,19.84352,R,ugm-3,29.16780,R,ugm-3
10-01-2021,21:00,5.38709,R,ugm-3,17.31860,R,ugm-3,25.57869,R,ugm-3
10-01-2021,22:00,6.04808,R,ugm-3,17.97327,R,ugm-3,27.24687,R,ugm-3
10-01-2021,23:00,4.39560,R,ugm-3,15.40141,R,ugm-3,22.14124,R,ugm-3
10-01-2021,24:00,3.86681,R,ugm-3,13.73523,R,ugm-3,19.66425,R,ugm-3
11-01-2021,01:00,3.39418,R,ugm-3,12.39216,R,ugm-3,17.59649,R,ugm-3
11-01-2021,02:00,1.89545,R,ugm-3,10.37532,R,ugm-3,13.28164,R,ugm-3
11-01-2021,03:00,1.81831,R,ugm-3,10.15651,R,ugm-3,12.94454,R,ugm-3
11-01-2021,04:00,1.55383,R,ugm-3,8.48889,R,ugm-3,10.87139,R,ugm-3
11-01-2021,05:00,2.38033,R,ugm-3,10.55887,R,ugm-3,14.20866,R,ugm-3
11-01-2021,06:00,2.97541,R,ugm-3,12.83199,R,ugm-3,17.39423,R,ugm-3
11-01-2021,07:00,18.11696,R,ugm-3,28.49946,R,ugm-3,56.27842,R,ugm-3
11-01-2021,08:00,27.60523,R,ugm-3,38.72766,R,ugm-3,81.05508,R,ugm-3
11-01-2021,09:00,38.94486,R,ugm-3,45.96543,R,ugm-3,105.68004,R,ugm-3
11-01-2021,10:00,24.49757,R,ugm-3,35.14950,R,ugm-3,72.71192,R,ugm-3
11-01-2021,11:00,18.64592,R,ugm-3,37.44737,R,ugm-3,66.03739,R,ugm-3
11-01-2021,12:00,14.08362,R,ugm-3,28.11043,R,ugm-3,49.70501,R,ugm-3
11-01-2021,13:00,12.00084,R,ugm-3,22.40462,R,ugm-3,40.80564,R,ugm-3
11-01-2021,14:00,12.89346,R,ugm-3,27.40709,R,ugm-3,47.17679,R,ugm-3
11-01-2021,15:00,14.97625,R,ugm-3,26.89345,R,ugm-3,49.85671,R,ugm-3
11-01-2021,16:00,11.50493,R,ugm-3,27.61468,R,ugm-3,45.25533,R,ugm-3
11-01-2021,17:00,14.94319,R,ugm-3,31.95004,R,ugm-3,54.86261,R,ugm-3
11-01-2021,18:00,11.47187,R,ugm-3,28.12045,R,ugm-3,45.71041,R,ugm-3
11-01-2021,19:00,8.59564,R,ugm-3,20.24342,R,ugm-3,33.42321,R,ugm-3
11-01-2021,20:00,5.62023,R,ugm-3,15.85572,R,ugm-3,24.47327,R,ugm-3
11-01-2021,21:00,3.90110,R,ugm-3,10.60359,R,ugm-3,16.58519,R,ugm-3
11-01-2021,22:00,2.57869,R,ugm-3,8.23213,R,ugm-3,12.18607,R,ugm-3
11-01-2021,23:00,2.77705,R,ugm-3,7.62460,R,ugm-3,11.88268,R,ugm-3
11-01-2021,24:00,3.00847,R,ugm-3,6.20790,R,ugm-3,10.82083,R,ugm-3
12-01-2021,01:00,2.73384,R,ugm-3,6.12617,R,ugm-3,10.31800,R,ugm-3
12-01-2021,02:00,1.27873,R,ugm-3,3.83897,R,ugm-3,5.79966,R,ugm-3
12-01-2021,03:00,1.45511,R,ugm-3,3.73712,R,ugm-3,5.96826,R,ugm-3
12-01-2021,04:00,1.52125,R,ugm-3,4.14149,R,ugm-3,6.47404,R,ugm-3
12-01-2021,05:00,1.52125,R,ugm-3,5.40595,R,ugm-3,7.73850,R,ugm-3
12-01-2021,06:00,4.53068,R,ugm-3,10.04741,R,ugm-3,16.99436,R,ugm-3
12-01-2021,07:00,10.71490,R,ugm-3,21.20109,R,ugm-3,37.63037,R,ugm-3
12-01-2021,08:00,12.69914,R,ugm-3,29.38705,R,ugm-3,48.85879,R,ugm-3
12-01-2021,09:00,11.31017,R,ugm-3,29.69594,R,ugm-3,47.03796,R,ugm-3
12-01-2021,10:00,12.93063,R,ugm-3,33.28068,R,ugm-3,53.10738,R,ugm-3
12-01-2021,11:00,13.62512,R,ugm-3,28.52360,R,ugm-3,49.41515,R,ugm-3
12-01-2021,12:00,19.01564,R,ugm-3,34.11674,R,ugm-3,63.27365,R,ugm-3
12-01-2021,13:00,18.85029,R,ugm-3,33.25756,R,ugm-3,62.16092,R,ugm-3
12-01-2021,14:00,22.65341,R,ugm-3,31.37129,R,ugm-3,66.10604,R,ugm-3
12-01-2021,15:00,20.96681,R,ugm-3,36.28399,R,ugm-3,68.43265,R,ugm-3
12-01-2021,16:00,34.75728,R,ugm-3,49.17820,R,ugm-3,102.47195,R,ugm-3
12-01-2021,17:00,58.93194,R,ugm-3,64.30786,R,ugm-3,154.66892,R,ugm-3
12-01-2021,18:00,46.26587,R,ugm-3,58.08562,R,ugm-3,129.02564,R,ugm-3
12-01-2021,19:00,36.64231,R,ugm-3,51.34571,R,ugm-3,107.52980,R,ugm-3
12-01-2021,20:00,24.04238,R,ugm-3,48.05676,R,ugm-3,84.92123,R,ugm-3
12-01-2021,21:00,18.42037,R,ugm-3,44.94286,R,ugm-3,73.18702,R,ugm-3
12-01-2021,22:00,17.13061,R,ugm-3,42.16608,R,ugm-3,68.43265,R,ugm-3
12-01-2021,23:00,18.81721,R,ugm-3,39.57999,R,ugm-3,68.43265,R,ugm-3
12-01-2021,24:00,22.12428,R,ugm-3,43.15814,R,ugm-3,77.08157,R,ugm-3
13-01-2021,01:00,11.24761,R,ugm-3,44.07177,R,ugm-3,61.31786,R,ugm-3
13-01-2021,02:00,3.26401,R,ugm-3,36.81822,R,ugm-3,41.82297,R,ugm-3
13-01-2021,03:00,3.14272,R,ugm-3,36.00922,R,ugm-3,40.82798,R,ugm-3
13-01-2021,04:00,3.83742,R,ugm-3,34.84284,R,ugm-3,40.72680,R,ugm-3
13-01-2021,05:00,4.92910,R,ugm-3,31.85355,R,ugm-3,39.41140,R,ugm-3
13-01-2021,06:00,3.60585,R,ugm-3,29.43038,R,ugm-3,34.95928,R,ugm-3
13-01-2021,07:00,31.39406,R,ugm-3,43.43517,R,ugm-3,91.57206,R,ugm-3
13-01-2021,08:00,69.99982,R,ugm-3,48.84686,R,ugm-3,156.17842,R,ugm-3
13-01-2021,09:00,57.92518,R,ugm-3,56.78726,R,ugm-3,145.60463,R,ugm-3
13-01-2021,10:00,68.37884,R,ugm-3,48.80271,R,ugm-3,153.64880,R,ugm-3
13-01-2021,11:00,64.66272,R,ugm-3,46.76006,R,ugm-3,145.90818,R,ugm-3
13-01-2021,12:00,50.91197,R,ugm-3,49.52985,R,ugm-3,127.59377,R,ugm-3
13-01-2021,13:00,33.67666,R,ugm-3,45.95571,R,ugm-3,97.59254,R,ugm-3
13-01-2021,14:00,27.35815,R,ugm-3,39.65679,R,ugm-3,81.60538,R,ugm-3
13-01-2021,15:00,23.48765,R,ugm-3,42.91009,R,ugm-3,78.92398,R,ugm-3
13-01-2021,16:00,19.15402,R,ugm-3,40.70125,R,ugm-3,70.07033,R,ugm-3
13-01-2021,17:00,26.76269,R,ugm-3,49.77762,R,ugm-3,90.81317,R,ugm-3
13-01-2021,18:00,16.11055,R,ugm-3,45.06429,R,ugm-3,69.76678,R,ugm-3
13-01-2021,19:00,15.51508,R,ugm-3,35.04938,R,ugm-3,58.83884,R,ugm-3
13-01-2021,20:00,8.66727,R,ugm-3,26.72887,R,ugm-3,40.01851,R,ugm-3
13-01-2021,21:00,6.02078,R,ugm-3,27.19472,R,ugm-3,36.42645,R,ugm-3
13-01-2021,22:00,3.50661,R,ugm-3,22.04430,R,ugm-3,27.42103,R,ugm-3
13-01-2021,23:00,3.50661,R,ugm-3,20.88068,R,ugm-3,26.25740,R,ugm-3
13-01-2021,24:00,2.15028,R,ugm-3,11.22294,R,ugm-3,14.51999,R,ugm-3
14-01-2021,01:00,1.58774,R,ugm-3,8.15951,R,ugm-3,10.59401,R,ugm-3
14-01-2021,02:00,0.97029,R,ugm-3,4.11291,R,ugm-3,5.60066,R,ugm-3
14-01-2021,03:00,0.79387,R,ugm-3,3.48933,R,ugm-3,4.70658,R,ugm-3
14-01-2021,04:00,0.95926,R,ugm-3,4.29851,R,ugm-3,5.76935,R,ugm-3
14-01-2021,05:00,0.89310,R,ugm-3,4.34934,R,ugm-3,5.71874,R,ugm-3
14-01-2021,06:00,1.09157,R,ugm-3,6.06936,R,ugm-3,7.74308,R,ugm-3
14-01-2021,07:00,8.66641,R,ugm-3,20.26502,R,ugm-3,33.55333,R,ugm-3
14-01-2021,08:00,8.56717,R,ugm-3,20.36657,R,ugm-3,33.50272,R,ugm-3
14-01-2021,09:00,7.21098,R,ugm-3,18.44798,R,ugm-3,29.50466,R,ugm-3
14-01-2021,10:00,5.19323,R,ugm-3,12.93841,R,ugm-3,20.90124,R,ugm-3
14-01-2021,11:00,5.32554,R,ugm-3,14.30439,R,ugm-3,22.47010,R,ugm-3
14-01-2021,12:00,10.18799,R,ugm-3,19.39960,R,ugm-3,35.02097,R,ugm-3
14-01-2021,13:00,19.87981,R,ugm-3,25.99695,R,ugm-3,56.47890,R,ugm-3
14-01-2021,14:00,21.30216,R,ugm-3,28.77567,R,ugm-3,61.43852,R,ugm-3
14-01-2021,15:00,21.63294,R,ugm-3,29.53369,R,ugm-3,62.70373,R,ugm-3
14-01-2021,16:00,30.63012,R,ugm-3,38.51195,R,ugm-3,85.47748,R,ugm-3
14-01-2021,17:00,31.29168,R,ugm-3,39.77495,R,ugm-3,87.75485,R,ugm-3
14-01-2021,18:00,11.27956,R,ugm-3,29.26459,R,ugm-3,46.55967,R,ugm-3
14-01-2021,19:00,12.60267,R,ugm-3,27.64071,R,ugm-3,46.96454,R,ugm-3
14-01-2021,20:00,8.66641,R,ugm-3,25.17403,R,ugm-3,38.46234,R,ugm-3
14-01-2021,21:00,5.25938,R,ugm-3,20.83308,R,ugm-3,28.89736,R,ugm-3
14-01-2021,22:00,4.20089,R,ugm-3,17.29403,R,ugm-3,23.73531,R,ugm-3
14-01-2021,23:00,4.59783,R,ugm-3,19.92434,R,ugm-3,26.97424,R,ugm-3
14-01-2021,24:00,4.30013,R,ugm-3,17.69857,R,ugm-3,24.29200,R,ugm-3
15-01-2021,01:00,2.99876,R,ugm-3,16.19171,R,ugm-3,20.78974,R,ugm-3
15-01-2021,02:00,1.49938,R,ugm-3,12.75330,R,ugm-3,15.05231,R,ugm-3
15-01-2021,03:00,1.15761,R,ugm-3,10.67862,R,ugm-3,12.45360,R,ugm-3
15-01-2021,04:00,1.48836,R,ugm-3,12.85457,R,ugm-3,15.13669,R,ugm-3
15-01-2021,05:00,2.31522,R,ugm-3,15.83918,R,ugm-3,19.38914,R,ugm-3
15-01-2021,06:00,8.10327,R,ugm-3,21.24037,R,ugm-3,33.66521,R,ugm-3
15-01-2021,07:00,26.39351,R,ugm-3,38.25142,R,ugm-3,78.72090,R,ugm-3
15-01-2021,08:00,46.13902,R,ugm-3,37.38815,R,ugm-3,108.13366,R,ugm-3
15-01-2021,09:00,42.40160,R,ugm-3,44.18190,R,ugm-3,109.19677,R,ugm-3
15-01-2021,10:00,33.83528,R,ugm-3,39.69945,R,ugm-3,91.57949,R,ugm-3
15-01-2021,11:00,41.21091,R,ugm-3,40.99578,R,ugm-3,104.18496,R,ugm-3
15-01-2021,12:00,50.53794,R,ugm-3,41.93247,R,ugm-3,119.42290,R,ugm-3
15-01-2021,13:00,61.41947,R,ugm-3,44.73807,R,ugm-3,138.91328,R,ugm-3
15-01-2021,14:00,67.14138,R,ugm-3,45.98824,R,ugm-3,148.93691,R,ugm-3
15-01-2021,15:00,69.85349,R,ugm-3,53.87832,R,ugm-3,160.98551,R,ugm-3
15-01-2021,16:00,51.16636,R,ugm-3,42.99388,R,ugm-3,121.44787,R,ugm-3